TimeCST,TemperatureF,Dew PointF,Humidity,Sea Level PressureIn,VisibilityMPH,Wind Direction,Wind SpeedMPH,Gust SpeedMPH,PrecipitationIn,Events,Conditions,WindDirDegrees,DateUTC
12:15 AM,35.6,33.8,93,30.23,10.0,East,3.5,-,N/A,,Drizzle,90,2012-12-31 06:15:00
12:35 AM,35.6,33.8,93,30.22,5.0,East,3.5,-,0.01,Rain,Rain,100,2012-12-31 06:35:00
12:55 AM,35.6,33.8,93,30.21,5.0,East,3.5,-,0.02,Rain,Light Rain,90,2012-12-31 06:55:00
1:15 AM,33.8,33.8,100,30.20,5.0,East,4.6,-,0.01,Rain,Rain,90,2012-12-31 07:15:00
1:35 AM,35.6,33.8,93,30.19,7.0,East,4.6,-,0.02,Rain,Rain,90,2012-12-31 07:35:00
1:55 AM,35.6,33.8,93,30.18,10.0,ESE,4.6,-,0.03,,Drizzle,110,2012-12-31 07:55:00
2:15 AM,35.6,33.8,93,30.18,7.0,ESE,5.8,-,N/A,Rain,Light Rain,120,2012-12-31 08:15:00
2:35 AM,35.6,33.8,93,30.16,10.0,ESE,6.9,-,0.01,Rain,Rain,120,2012-12-31 08:35:00
2:55 AM,35.6,33.8,93,30.15,10.0,SE,6.9,-,0.01,,Drizzle,130,2012-12-31 08:55:00
3:15 AM,35.6,33.8,93,30.15,5.0,SE,5.8,-,0.01,Rain,Light Rain,130,2012-12-31 09:15:00
3:35 AM,35.6,33.8,93,30.15,5.0,ESE,5.8,-,0.02,Rain,Light Rain,120,2012-12-31 09:35:00
3:55 AM,35.6,33.8,93,30.13,5.0,SE,6.9,-,0.04,Rain,Light Rain,130,2012-12-31 09:55:00
4:15 AM,35.6,33.8,93,30.12,5.0,SE,9.2,-,0.01,Rain,Light Rain,140,2012-12-31 10:15:00
4:35 AM,35.6,33.8,93,30.10,7.0,SE,10.4,-,0.02,Rain,Rain,130,2012-12-31 10:35:00
4:55 AM,35.6,33.8,93,30.09,7.0,SE,8.1,-,0.02,,Drizzle,140,2012-12-31 10:55:00
5:15 AM,35.6,33.8,93,30.09,5.0,SE,6.9,-,N/A,Rain,Light Rain,140,2012-12-31 11:15:00
5:35 AM,35.6,33.8,93,30.09,5.0,SSE,6.9,-,0.02,Rain,Light Rain,150,2012-12-31 11:35:00
5:55 AM,35.6,33.8,93,30.10,5.0,SSE,5.8,-,0.03,Rain,Light Rain,160,2012-12-31 11:55:00
6:15 AM,35.6,33.8,93,30.10,4.0,SSE,6.9,-,0.03,Rain,Rain,150,2012-12-31 12:15:00
6:35 AM,35.6,33.8,93,30.07,2.5,SE,11.5,-,0.07,Rain,Light Rain,130,2012-12-31 12:35:00
6:55 AM,35.6,33.8,93,30.03,2.5,SE,15.0,-,0.07,Rain,Light Rain,130,2012-12-31 12:55:00
7:15 AM,35.6,33.8,93,30.04,3.0,SE,11.5,21.9,0.01,Rain,Light Rain,140,2012-12-31 13:15:00
7:35 AM,35.6,33.8,93,30.01,3.0,SE,12.7,20.7,0.02,Rain,Light Rain,130,2012-12-31 13:35:00
7:55 AM,35.6,35.6,100,30.08,5.0,SSW,5.8,-,0.02,Rain,Light Rain,200,2012-12-31 13:55:00
8:15 AM,35.6,35.6,100,-9999,5.0,SW,5.8,-,N/A,,Light Drizzle,230,2012-12-31 14:15:00
8:35 AM,35.6,35.6,100,30.08,5.0,South,4.6,-,N/A,,Overcast,180,2012-12-31 14:35:00
8:55 AM,35.6,35.6,100,30.09,2.0,SSW,5.8,-,N/A,Rain,Light Rain,200,2012-12-31 14:55:00
9:15 AM,35.6,35.6,100,30.10,2.0,South,3.5,-,N/A,Rain,Light Rain,190,2012-12-31 15:15:00
9:35 AM,35.6,35.6,100,30.11,2.0,Calm,Calm,-,0.01,,Overcast,0,2012-12-31 15:35:00
9:55 AM,35.6,35.6,100,30.12,1.2,Calm,Calm,-,0.02,Rain,Rain,0,2012-12-31 15:55:00
10:15 AM,35.6,35.6,100,30.12,0.8,Calm,Calm,-,0.01,,Drizzle,0,2012-12-31 16:15:00
10:35 AM,35.6,35.6,100,30.11,0.8,East,3.5,-,0.04,,Heavy Drizzle,90,2012-12-31 16:35:00
10:55 AM,35.6,35.6,100,30.10,0.8,ESE,4.6,-,0.05,,Light Drizzle,110,2012-12-31 16:55:00
11:15 AM,37.4,35.6,93,30.09,1.0,ESE,5.8,-,N/A,,Overcast,120,2012-12-31 17:15:00
11:35 AM,37.4,35.6,93,30.08,1.2,Calm,Calm,-,N/A,,Overcast,0,2012-12-31 17:35:00
11:55 AM,37.4,37.4,100,30.04,0.8,SE,10.4,-,0.01,,Light Drizzle,130,2012-12-31 17:55:00
12:15 PM,37.4,37.4,100,30.04,1.5,SE,10.4,-,N/A,,Overcast,140,2012-12-31 18:15:00
12:35 PM,39.2,37.4,93,30.02,2.5,SSE,8.1,-,N/A,,Overcast,150,2012-12-31 18:35:00
12:55 PM,42.8,42.8,100,30.00,4.0,South,9.2,-,N/A,,Overcast,170,2012-12-31 18:55:00
1:15 PM,44.6,42.8,93,29.99,7.0,SSE,10.4,-,N/A,,Overcast,160,2012-12-31 19:15:00
1:35 PM,42.8,42.8,100,29.99,7.0,SSE,9.2,-,N/A,,Overcast,160,2012-12-31 19:35:00
1:55 PM,42.8,42.8,100,29.98,7.0,SSE,9.2,-,N/A,,Overcast,160,2012-12-31 19:55:00
2:15 PM,44.6,44.6,100,29.98,7.0,SSE,8.1,-,N/A,,Overcast,160,2012-12-31 20:15:00
2:35 PM,44.6,44.6,100,29.98,10.0,South,9.2,-,N/A,,Overcast,180,2012-12-31 20:35:00
2:55 PM,44.6,44.6,100,29.98,7.0,SSE,5.8,-,N/A,,Overcast,160,2012-12-31 20:55:00
3:15 PM,44.6,42.8,93,29.98,7.0,SSE,5.8,-,N/A,,Overcast,160,2012-12-31 21:15:00
3:35 PM,44.6,44.6,100,29.98,7.0,SSE,6.9,-,N/A,,Overcast,160,2012-12-31 21:35:00
3:55 PM,44.6,42.8,93,29.98,5.0,SSE,4.6,-,N/A,,Overcast,160,2012-12-31 21:55:00
4:15 PM,44.6,42.8,93,30.00,5.0,SSE,4.6,-,N/A,,Overcast,160,2012-12-31 22:15:00
4:35 PM,44.6,42.8,93,30.00,5.0,Calm,Calm,-,N/A,,Overcast,0,2012-12-31 22:35:00
4:55 PM,44.6,42.8,93,29.99,5.0,SE,3.5,-,N/A,,Overcast,130,2012-12-31 22:55:00
5:15 PM,44.6,42.8,93,30.00,4.0,ESE,4.6,-,N/A,,Overcast,120,2012-12-31 23:15:00
5:35 PM,44.6,44.6,100,30.00,4.0,East,3.5,-,N/A,,Overcast,100,2012-12-31 23:35:00
5:55 PM,44.6,44.6,100,30.00,4.0,Calm,Calm,-,N/A,,Overcast,0,2012-12-31 23:55:00
6:15 PM,44.6,44.6,100,30.01,4.0,NNE,3.5,-,N/A,,Overcast,20,2013-01-01 00:15:00
6:35 PM,44.6,44.6,100,30.02,4.0,Calm,Calm,-,N/A,,Overcast,0,2013-01-01 00:35:00
6:55 PM,44.6,44.6,100,30.03,3.0,Calm,Calm,-,N/A,,Overcast,0,2013-01-01 00:55:00
7:15 PM,44.6,44.6,100,30.04,3.0,Calm,Calm,-,N/A,,Overcast,0,2013-01-01 01:15:00
7:35 PM,42.8,42.8,100,30.05,3.0,Calm,Calm,-,N/A,,Overcast,0,2013-01-01 01:35:00
7:55 PM,41.0,41.0,100,30.06,0.5,NNW,3.5,-,N/A,Fog,Fog,330,2013-01-01 01:55:00
8:15 PM,41.0,39.2,93,30.06,1.0,North,3.5,-,N/A,,Overcast,350,2013-01-01 02:15:00
8:35 PM,39.2,37.4,93,30.05,0.2,North,6.9,-,N/A,Fog,Fog,350,2013-01-01 02:35:00
8:55 PM,37.4,37.4,100,30.05,0.2,North,4.6,-,N/A,Fog,Fog,360,2013-01-01 02:55:00
9:15 PM,37.4,37.4,100,30.06,0.2,North,4.6,-,N/A,Fog,Fog,350,2013-01-01 03:15:00
9:35 PM,37.4,37.4,100,30.07,0.5,Calm,Calm,-,N/A,Fog,Fog,0,2013-01-01 03:35:00
9:55 PM,37.4,37.4,100,30.08,0.2,Calm,Calm,-,N/A,Fog,Fog,0,2013-01-01 03:55:00
10:15 PM,35.6,35.6,100,30.08,0.2,Calm,Calm,-,N/A,Fog,Fog,0,2013-01-01 04:15:00
10:35 PM,35.6,33.8,93,30.09,0.2,Calm,Calm,-,N/A,Fog,Fog,0,2013-01-01 04:35:00
10:55 PM,33.8,32.0,93,30.09,0.2,WNW,3.5,-,N/A,Fog,Fog,300,2013-01-01 04:55:00
11:15 PM,32.0,32.0,100,30.09,0.2,WNW,3.5,-,N/A,Fog,Fog,300,2013-01-01 05:15:00
11:35 PM,32.0,32.0,100,30.08,0.5,NW,4.6,-,N/A,Fog,Fog,320,2013-01-01 05:35:00
11:55 PM,33.8,32.0,93,30.09,1.0,Calm,Calm,-,N/A,,Mostly Cloudy,0,2013-01-01 05:55:00